User: anonymous
Location: Dayton
(39.7590°N, 84.1920°W)
Time: 05:59:58
(UTC-04:00)
Language:

Cosmos 1939 Rocket - Orbit

View from above orbital plane
View from above orbital plane
View from above satellite
View from above satellite

Ground track
Ground track

The orbit data is extracted from the following two-line orbital elements,

1 19046U 88032B   14106.74312374  .00001992  00000-0  16620-3 0  8363
2 19046 097.6535 162.3571 0034608 304.2024 055.5920 14.99275901398999
Epoch (UTC): 16 April 2014 17:50:05
Eccentricity: 0.0034608
inclination: 97.6535°
perigee height: 545 km
apogee height: 593 km
right ascension of ascending node: 162.3571°
argument of perigee: 304.2024°
revolutions per day: 14.99275901
mean anomaly at epoch: 55.5920°
orbit number at epoch: 39899

The dashed part of the orbit path shows where the satellite is in the earth's shadow,  

DLR